Weather History for Adak, AK

Change the Weather History Date:

Friday, November 16, 2012

  Actual Average Record
Temperature  
Mean Temperature 44 °F -  
Max Temperature 48 °F 42 °F 57 °F (1970)
Min Temperature 39 °F 32 °F 16 °F (1971)
Degree Days  
Heating Degree Days 22    
Moisture  
Dew Point 40 °F    
Average Humidity 85    
Maximum Humidity 93    
Minimum Humidity 62    
Precipitation  
Precipitation 0.00 in - - ()
Sea Level Pressure  
Sea Level Pressure 29.78 in    
Wind  
Wind Speed 14 mph (WSW)    
Max Wind Speed 25 mph    
Max Gust Speed 31 mph    
Visibility 9 miles    
Events      
Averages and records for this station are not official NWS values.
T = Trace of Precipitation, MM = Missing Value Source: NWS Daily Summary

Daily Weather History Graph

Daily Weather History Graph

Search for Another Location

Airport:

Trip Planner

Search our weather history database for the weather conditions in past years. The results will help you decide how hot, cold, wet, or windy it might be!

Date:

Astronomy

Nov. 16, 2012 Rise Set
Actual Time 9:09 AM HAST 5:53 PM HAST
Civil Twilight 8:31 AM HAST 6:30 PM HAST
Nautical Twilight 7:50 AM HAST 7:12 PM HAST
Astronomical Twilight 7:10 AM HAST 7:51 PM HAST
Moon 12:21 PM HAST (11/16) 9:06 PM HAST (11/16)
Length of Visible Light 9h 59m
Length of Day
8h 44m
Waxing Crescent, 13% of the Moon is Illuminated
Nov 16
Waxing Crescent
Nov 20
First Quarter
Nov 28
Full
Dec 6
Last Quarter
Dec 12
New

Hourly Weather History & Observations

Time (HAST) Temp. Windchill Dew Point Humidity Pressure Visibility Wind Dir Wind Speed Gust Speed Precip Events Conditions
12:16 AM 48.2 °F - 46.4 °F 93% 29.83 in 10.0 mi WSW 11.5 mph - N/A   Overcast
12:36 AM 48.2 °F - 46.4 °F 93% 29.81 in 9.0 mi SSW 6.9 mph - N/A   Overcast
12:56 AM 46.4 °F 41.9 °F 44.6 °F 93% 29.79 in 10.0 mi South 9.2 mph - N/A   Overcast
1:16 AM 46.4 °F 42.9 °F 44.6 °F 93% 29.79 in 10.0 mi SSE 6.9 mph - N/A   Overcast
1:36 AM 46.4 °F 40.4 °F 42.8 °F 87% 29.78 in 8.0 mi South 13.8 mph - N/A   Overcast
1:56 AM 46.4 °F 41.1 °F 44.6 °F 93% 29.76 in 6.0 mi SSW 11.5 mph - N/A   Overcast
2:16 AM 46.4 °F 42.4 °F 42.8 °F 87% 29.76 in 7.0 mi West 8.1 mph - N/A   Overcast
2:36 AM 46.4 °F 41.5 °F 44.6 °F 93% 29.74 in 9.0 mi South 10.4 mph - N/A   Overcast
2:56 AM 46.4 °F 42.4 °F 44.6 °F 93% 29.71 in 10.0 mi South 8.1 mph - N/A   Mostly Cloudy
3:16 AM 46.4 °F 39.5 °F 44.6 °F 93% 29.70 in 10.0 mi South 17.3 mph 20.7 mph N/A   Overcast
3:36 AM 46.4 °F 40.4 °F 42.8 °F 87% 29.68 in 9.0 mi South 13.8 mph - N/A   Overcast
3:56 AM 46.4 °F 41.5 °F 44.6 °F 93% 29.68 in 10.0 mi South 10.4 mph - N/A   Overcast
4:16 AM 46.4 °F 40.4 °F 44.6 °F 93% 29.68 in 6.0 mi SSW 13.8 mph - N/A   Overcast
4:36 AM 48.2 °F - 44.6 °F 87% 29.67 in 9.0 mi SW 17.3 mph 23.0 mph N/A   Overcast
4:56 AM 48.2 °F - 44.6 °F 87% 29.66 in 5.0 mi WSW 24.2 mph 31.1 mph N/A   Overcast
5:16 AM 46.4 °F 38.5 °F 44.6 °F 93% 29.67 in 4.0 mi WSW 21.9 mph 27.6 mph N/A   Overcast
5:36 AM 46.4 °F 38.3 °F 44.6 °F 93% 29.67 in 2.5 mi WSW 23.0 mph 31.1 mph N/A   Overcast
5:56 AM 44.6 °F 36.4 °F 42.8 °F 93% 29.68 in 10.0 mi West 20.7 mph 27.6 mph N/A   Overcast
6:16 AM 44.6 °F 36.9 °F 42.8 °F 93% 29.68 in 5.0 mi West 18.4 mph - N/A   Overcast
6:36 AM 44.6 °F 38.4 °F 42.8 °F 93% 29.63 in 10.0 mi SW 12.7 mph - N/A   Mostly Cloudy
6:56 AM 44.6 °F 38.1 °F 42.8 °F 93% 29.65 in 10.0 mi West 13.8 mph - N/A   Mostly Cloudy
7:16 AM 46.4 °F 38.3 °F 42.8 °F 87% 29.65 in 10.0 mi West 23.0 mph - N/A   Mostly Cloudy
7:36 AM 46.4 °F 39.5 °F 44.6 °F 93% 29.66 in 10.0 mi West 17.3 mph 26.5 mph N/A   Mostly Cloudy
7:56 AM 46.4 °F 39.5 °F 42.8 °F 87% 29.69 in 10.0 mi WSW 17.3 mph - N/A   Overcast
8:16 AM 44.6 °F 37.2 °F 42.8 °F 93% 29.69 in 10.0 mi West 17.3 mph - N/A   Overcast
8:36 AM 44.6 °F 37.8 °F 42.8 °F 93% 29.71 in 9.0 mi West 15.0 mph 20.7 mph N/A   Overcast
8:56 AM 44.6 °F 38.8 °F 42.8 °F 93% 29.71 in 4.0 mi West 11.5 mph - N/A   Overcast
9:16 AM 44.6 °F 36.4 °F 42.8 °F 93% 29.72 in 10.0 mi NNE 20.7 mph 28.8 mph N/A   Overcast
9:36 AM 44.6 °F 38.8 °F 41.0 °F 87% 29.74 in 10.0 mi West 11.5 mph - N/A   Overcast
9:56 AM 44.6 °F 37.4 °F 41.0 °F 87% 29.76 in 10.0 mi WSW 16.1 mph 21.9 mph N/A   Overcast
10:16 AM 44.6 °F 38.8 °F 39.2 °F 81% 29.77 in 10.0 mi WSW 11.5 mph 21.9 mph N/A   Overcast
10:36 AM 44.6 °F 36.6 °F 39.2 °F 81% 29.78 in 9.0 mi West 19.6 mph 24.2 mph N/A   Overcast
10:56 AM 42.8 °F 36.2 °F 39.2 °F 87% 29.78 in 10.0 mi West 12.7 mph 18.4 mph N/A   Overcast
11:16 AM 42.8 °F 35.4 °F 39.2 °F 87% 29.79 in 10.0 mi WSW 15.0 mph 20.7 mph N/A   Overcast
11:36 AM 42.8 °F 34.8 °F 39.2 °F 87% 29.80 in 10.0 mi WSW 17.3 mph 23.0 mph N/A   Overcast
11:56 AM 42.8 °F 36.6 °F 37.4 °F 81% 29.80 in 10.0 mi West 11.5 mph 19.6 mph N/A   Mostly Cloudy
12:16 PM 44.6 °F 38.4 °F 37.4 °F 76% 29.79 in 10.0 mi West 12.7 mph - N/A   Clear
12:36 PM 44.6 °F 36.6 °F 39.2 °F 81% 29.79 in 10.0 mi West 19.6 mph - N/A   Clear
12:56 PM 46.4 °F 39.0 °F 33.8 °F 62% 29.81 in 10.0 mi West 19.6 mph 27.6 mph N/A   Partly Cloudy
1:16 PM 46.4 °F 41.1 °F 33.8 °F 62% 29.81 in 10.0 mi WSW 11.5 mph - N/A   Clear
1:36 PM 46.4 °F 40.4 °F 37.4 °F 71% 29.81 in 10.0 mi West 13.8 mph 19.6 mph N/A   Clear
1:56 PM 46.4 °F 40.1 °F 39.2 °F 76% 29.83 in 10.0 mi WSW 15.0 mph - N/A   Clear
2:16 PM 44.6 °F 38.1 °F 39.2 °F 81% 29.82 in 10.0 mi WSW 13.8 mph - N/A   Clear
2:36 PM 44.6 °F 38.8 °F 39.2 °F 81% 29.83 in 10.0 mi West 11.5 mph 20.7 mph N/A   Scattered Clouds
2:56 PM 44.6 °F 36.4 °F 39.2 °F 81% 29.83 in 10.0 mi WSW 20.7 mph - N/A   Partly Cloudy
3:16 PM 44.6 °F 37.2 °F 37.4 °F 76% 29.83 in 10.0 mi WSW 17.3 mph - N/A   Clear
3:36 PM 44.6 °F 36.6 °F 37.4 °F 76% 29.82 in 10.0 mi West 19.6 mph 24.2 mph N/A   Clear
3:56 PM 44.6 °F 36.9 °F 37.4 °F 76% 29.82 in 10.0 mi West 18.4 mph 24.2 mph N/A   Scattered Clouds
4:16 PM 44.6 °F 37.2 °F 37.4 °F 76% 29.82 in 10.0 mi West 17.3 mph 26.5 mph N/A   Scattered Clouds
4:36 PM 42.8 °F 33.5 °F 37.4 °F 81% 29.81 in 10.0 mi WSW 23.0 mph 26.5 mph N/A   Clear
4:56 PM 42.8 °F 35.1 °F 35.6 °F 76% 29.83 in 10.0 mi West 16.1 mph 23.0 mph N/A   Clear
5:16 PM 42.8 °F 35.1 °F 37.4 °F 81% 29.84 in 10.0 mi WSW 16.1 mph 21.9 mph N/A   Partly Cloudy
5:36 PM 42.8 °F 36.2 °F 35.6 °F 76% 29.85 in 10.0 mi West 12.7 mph - N/A   Clear
5:56 PM 41.0 °F 31.6 °F 35.6 °F 81% 29.84 in 10.0 mi West 20.7 mph 25.3 mph N/A   Clear
6:16 PM 41.0 °F 30.7 °F 37.4 °F 87% 29.82 in 10.0 mi WSW 25.3 mph 31.1 mph N/A   Clear
6:36 PM 41.0 °F 32.5 °F 35.6 °F 81% 29.84 in 10.0 mi West 17.3 mph 31.1 mph N/A   Clear
6:56 PM 39.2 °F 34.2 °F 35.6 °F 87% 29.85 in 10.0 mi NW 6.9 mph 19.6 mph N/A   Clear
7:16 PM 39.2 °F 31.6 °F 35.6 °F 87% 29.84 in 10.0 mi WSW 12.7 mph 20.7 mph N/A   Clear
7:36 PM 39.2 °F 35.0 °F 35.6 °F 87% 29.85 in 10.0 mi North 5.8 mph - N/A   Clear
7:56 PM 39.2 °F 35.0 °F 35.6 °F 87% 29.85 in 10.0 mi West 5.8 mph - N/A   Mostly Cloudy
8:16 PM 39.2 °F 34.2 °F 35.6 °F 87% 29.86 in 10.0 mi WSW 6.9 mph - N/A   Overcast
8:36 PM 41.0 °F 34.3 °F 35.6 °F 81% 29.86 in 10.0 mi WSW 11.5 mph 19.6 mph N/A   Mostly Cloudy
8:56 PM 41.0 °F 34.7 °F 35.6 °F 81% 29.87 in 10.0 mi West 10.4 mph - N/A   Overcast
9:16 PM 39.2 °F 29.3 °F 33.8 °F 81% 29.86 in 10.0 mi WSW 20.7 mph 25.3 mph N/A   Mostly Cloudy
9:36 PM 39.2 °F 28.7 °F 33.8 °F 81% 29.85 in 10.0 mi WSW 23.0 mph 27.6 mph N/A   Partly Cloudy
9:56 PM 39.2 °F 30.2 °F 33.8 °F 81% 29.86 in 10.0 mi West 17.3 mph 27.6 mph N/A   Clear
10:16 PM 39.2 °F 30.5 °F 33.8 °F 81% 29.86 in 10.0 mi WSW 16.1 mph 24.2 mph N/A   Clear
10:36 PM 39.2 °F 30.8 °F 33.8 °F 81% 29.86 in 10.0 mi WSW 15.0 mph 19.6 mph N/A   Partly Cloudy
10:56 PM 39.2 °F 29.3 °F 33.8 °F 81% 29.86 in 10.0 mi West 20.7 mph 26.5 mph N/A   Partly Cloudy
11:16 PM 39.2 °F 29.6 °F 33.8 °F 81% 29.86 in 10.0 mi WSW 19.6 mph 24.2 mph N/A   Clear
11:36 PM 39.2 °F 29.6 °F 33.8 °F 81% 29.86 in 10.0 mi WSW 19.6 mph 25.3 mph N/A   Clear
11:56 PM 39.2 °F 30.2 °F 33.8 °F 81% 29.87 in 10.0 mi West 17.3 mph 24.2 mph N/A   Partly Cloudy